# Tabular Observed and Forecast Hydrograph Information
#
# Location: Indian Creek - Happy Camp (HAPC1)
#
# File Generation Time: 09/03/2026 at 07:14 AM PDT
# Data Interval: 1 Hour
#
# Most Recent Date & Time of Maximum Observed: 09/03/2026 at 02:00 AM PDT
# Maximum Observed Stage: 3.65 Feet
# Maximum Observed Flow: 86 cfs
#
# Earliest Date & Time of Maximum Forecast: 09/03/2026 at 07:00 AM PDT
# Maximum Forecast Stage: 3.54 Feet
# Maximum Forecast Flow: 71 cfs
#
# OBSERVED
#
# Date & Time (Local) Stage (Feet) Flow (cfs) Trend Observed Status
# ---------------------------------------------------------------------------------
08/29/2026 07 AM PDT 3.21 35 Normal
08/29/2026 08 AM PDT 3.21 35 0 Normal
08/29/2026 09 AM PDT 3.22 36 + Normal
08/29/2026 10 AM PDT 3.22 36 0 Normal
08/29/2026 11 AM PDT 3.23 37 + Normal
08/29/2026 12 PM PDT 3.23 37 0 Normal
08/29/2026 01 PM PDT 3.23 37 0 Normal
08/29/2026 02 PM PDT 3.23 37 0 Normal
08/29/2026 03 PM PDT 3.23 37 0 Normal
08/29/2026 04 PM PDT 3.22 36 - Normal
08/29/2026 05 PM PDT 3.22 36 0 Normal
08/29/2026 06 PM PDT 3.21 35 - Normal
08/29/2026 07 PM PDT 3.21 35 0 Normal
08/29/2026 08 PM PDT 3.20 34 - Normal
08/29/2026 09 PM PDT 3.20 34 0 Normal
08/29/2026 10 PM PDT 3.19 33 - Normal
08/29/2026 11 PM PDT 3.20 34 + Normal
08/30/2026 12 AM PDT 3.19 33 - Normal
08/30/2026 01 AM PDT 3.19 33 0 Normal
08/30/2026 02 AM PDT 3.20 34 + Normal
08/30/2026 03 AM PDT 3.20 34 0 Normal
08/30/2026 04 AM PDT 3.20 34 0 Normal
08/30/2026 05 AM PDT 3.20 34 0 Normal
08/30/2026 06 AM PDT 3.21 35 + Normal
08/30/2026 07 AM PDT 3.21 35 0 Normal
08/30/2026 08 AM PDT 3.22 36 + Normal
08/30/2026 09 AM PDT 3.22 36 0 Normal
08/30/2026 10 AM PDT 3.23 37 + Normal
08/30/2026 11 AM PDT 3.23 37 0 Normal
08/30/2026 12 PM PDT 3.23 37 0 Normal
08/30/2026 01 PM PDT 3.24 37 + Normal
08/30/2026 02 PM PDT 3.23 37 - Normal
08/30/2026 03 PM PDT 3.23 37 0 Normal
08/30/2026 04 PM PDT 3.23 37 0 Normal
08/30/2026 05 PM PDT 3.22 36 - Normal
08/30/2026 06 PM PDT 3.22 36 0 Normal
08/30/2026 07 PM PDT 3.21 35 - Normal
08/30/2026 08 PM PDT 3.21 35 0 Normal
08/30/2026 09 PM PDT 3.20 34 - Normal
08/30/2026 10 PM PDT 3.20 34 0 Normal
08/30/2026 11 PM PDT 3.19 33 - Normal
08/31/2026 12 AM PDT 3.19 33 0 Normal
08/31/2026 01 AM PDT 3.19 33 0 Normal
08/31/2026 02 AM PDT 3.19 33 0 Normal
08/31/2026 03 AM PDT 3.20 34 + Normal
08/31/2026 04 AM PDT 3.20 34 0 Normal
08/31/2026 05 AM PDT 3.20 34 0 Normal
08/31/2026 06 AM PDT 3.21 35 + Normal
08/31/2026 07 AM PDT 3.21 35 0 Normal
08/31/2026 08 AM PDT 3.21 35 0 Normal
08/31/2026 09 AM PDT 3.22 36 + Normal
08/31/2026 10 AM PDT 3.23 37 + Normal
08/31/2026 11 AM PDT 3.23 37 0 Normal
08/31/2026 12 PM PDT 3.23 37 0 Normal
08/31/2026 01 PM PDT 3.23 37 0 Normal
08/31/2026 02 PM PDT 3.23 37 0 Normal
08/31/2026 03 PM PDT 3.23 37 0 Normal
08/31/2026 04 PM PDT 3.22 36 - Normal
08/31/2026 05 PM PDT 3.22 36 0 Normal
08/31/2026 06 PM PDT 3.21 35 - Normal
08/31/2026 07 PM PDT 3.21 35 0 Normal
08/31/2026 08 PM PDT 3.20 34 - Normal
08/31/2026 09 PM PDT 3.19 33 - Normal
08/31/2026 10 PM PDT 3.19 33 0 Normal
08/31/2026 11 PM PDT 3.19 33 0 Normal
09/01/2026 12 AM PDT 3.18 32 - Normal
09/01/2026 01 AM PDT 3.19 33 + Normal
09/01/2026 02 AM PDT 3.18 32 - Normal
09/01/2026 03 AM PDT 3.19 33 + Normal
09/01/2026 04 AM PDT 3.19 33 0 Normal
09/01/2026 05 AM PDT 3.19 33 0 Normal
09/01/2026 06 AM PDT 3.20 34 + Normal
09/01/2026 07 AM PDT 3.20 34 0 Normal
09/01/2026 08 AM PDT 3.20 34 0 Normal
09/01/2026 09 AM PDT 3.21 35 + Normal
09/01/2026 10 AM PDT 3.22 36 + Normal
09/01/2026 11 AM PDT 3.22 36 0 Normal
09/01/2026 12 PM PDT 3.23 37 + Normal
09/01/2026 01 PM PDT 3.23 37 0 Normal
09/01/2026 02 PM PDT 3.23 37 0 Normal
09/01/2026 03 PM PDT 3.22 36 - Normal
09/01/2026 04 PM PDT 3.22 36 0 Normal
09/01/2026 05 PM PDT 3.22 36 0 Normal
09/01/2026 06 PM PDT 3.22 36 0 Normal
09/01/2026 07 PM PDT 3.22 36 0 Normal
09/01/2026 08 PM PDT 3.21 35 - Normal
09/01/2026 09 PM PDT 3.21 35 0 Normal
09/01/2026 10 PM PDT 3.21 35 0 Normal
09/01/2026 11 PM PDT 3.21 35 0 Normal
09/02/2026 12 AM PDT 3.21 35 0 Normal
09/02/2026 01 AM PDT 3.21 35 0 Normal
09/02/2026 02 AM PDT 3.21 35 0 Normal
09/02/2026 03 AM PDT 3.21 35 0 Normal
09/02/2026 04 AM PDT 3.22 36 + Normal
09/02/2026 05 AM PDT 3.22 36 0 Normal
09/02/2026 06 AM PDT 3.22 36 0 Normal
09/02/2026 07 AM PDT 3.22 36 0 Normal
09/02/2026 08 AM PDT 3.23 37 + Normal
09/02/2026 09 AM PDT 3.23 37 0 Normal
09/02/2026 10 AM PDT 3.24 37 + Normal
09/02/2026 11 AM PDT 3.24 37 0 Normal
09/02/2026 12 PM PDT 3.25 38 + Normal
09/02/2026 01 PM PDT 3.26 39 + Normal
09/02/2026 02 PM PDT 3.28 41 + Normal
09/02/2026 03 PM PDT 3.30 43 + Normal
09/02/2026 04 PM PDT 3.32 45 + Normal
09/02/2026 05 PM PDT 3.34 47 + Normal
09/02/2026 06 PM PDT 3.38 51 + Normal
09/02/2026 07 PM PDT 3.40 54 + Normal
09/02/2026 08 PM PDT 3.42 56 + Normal
09/02/2026 09 PM PDT 3.46 61 + Normal
09/02/2026 10 PM PDT 3.51 67 + Normal
09/02/2026 11 PM PDT 3.56 73 + Normal
09/03/2026 12 AM PDT 3.61 80 + Normal
09/03/2026 01 AM PDT 3.64 85 + Normal
09/03/2026 02 AM PDT 3.65 86 + Normal
09/03/2026 03 AM PDT 3.64 85 - Normal
09/03/2026 04 AM PDT 3.62 82 - Normal
09/03/2026 05 AM PDT 3.59 77 - Normal
09/03/2026 06 AM PDT 3.56 73 - Normal
#
# FORECAST
#
# Date & Time (Local) Stage (Feet) Flow (cfs) Trend Forecast Status
# ---------------------------------------------------------------------------------
09/03/2026 07 AM PDT 3.54 71 Normal
09/03/2026 08 AM PDT 3.52 68 - Normal
09/03/2026 09 AM PDT 3.50 65 - Normal
09/03/2026 10 AM PDT 3.49 64 - Normal
09/03/2026 11 AM PDT 3.48 63 - Normal
09/03/2026 12 PM PDT 3.47 62 - Normal
09/03/2026 01 PM PDT 3.45 59 - Normal
09/03/2026 02 PM PDT 3.44 58 - Normal
09/03/2026 03 PM PDT 3.40 54 - Normal
09/03/2026 04 PM PDT 3.38 51 - Normal
09/03/2026 05 PM PDT 3.37 50 - Normal
09/03/2026 06 PM PDT 3.36 49 - Normal
09/03/2026 07 PM PDT 3.35 48 - Normal
09/03/2026 08 PM PDT 3.34 47 - Normal
09/03/2026 09 PM PDT 3.33 46 - Normal
09/03/2026 10 PM PDT 3.32 45 - Normal
09/03/2026 11 PM PDT 3.31 44 - Normal
09/04/2026 12 AM PDT 3.30 43 - Normal
09/04/2026 01 AM PDT 3.29 42 - Normal
09/04/2026 02 AM PDT 3.28 41 - Normal
09/04/2026 03 AM PDT 3.27 40 - Normal
09/04/2026 04 AM PDT 3.27 40 0 Normal
09/04/2026 05 AM PDT 3.27 40 0 Normal
09/04/2026 06 AM PDT 3.26 39 - Normal
09/04/2026 07 AM PDT 3.26 39 0 Normal
09/04/2026 08 AM PDT 3.26 39 0 Normal
09/04/2026 09 AM PDT 3.26 39 0 Normal
09/04/2026 10 AM PDT 3.25 38 - Normal
09/04/2026 11 AM PDT 3.25 38 0 Normal
09/04/2026 12 PM PDT 3.25 38 0 Normal
09/04/2026 01 PM PDT 3.25 38 0 Normal
09/04/2026 02 PM PDT 3.24 37 - Normal
09/04/2026 03 PM PDT 3.25 38 + Normal
09/04/2026 04 PM PDT 3.25 38 0 Normal
09/04/2026 05 PM PDT 3.26 39 + Normal
09/04/2026 06 PM PDT 3.25 38 - Normal
09/04/2026 07 PM PDT 3.24 37 - Normal
09/04/2026 08 PM PDT 3.23 37 - Normal
09/04/2026 09 PM PDT 3.23 37 0 Normal
09/04/2026 10 PM PDT 3.23 37 0 Normal
09/04/2026 11 PM PDT 3.23 37 0 Normal
09/05/2026 12 AM PDT 3.23 37 0 Normal
09/05/2026 01 AM PDT 3.23 37 0 Normal
09/05/2026 02 AM PDT 3.22 36 - Normal
09/05/2026 03 AM PDT 3.22 36 0 Normal
09/05/2026 04 AM PDT 3.22 36 0 Normal
09/05/2026 05 AM PDT 3.22 36 0 Normal
09/05/2026 06 AM PDT 3.22 36 0 Normal
09/05/2026 07 AM PDT 3.22 36 0 Normal
09/05/2026 08 AM PDT 3.22 36 0 Normal
09/05/2026 09 AM PDT 3.22 36 0 Normal
09/05/2026 10 AM PDT 3.22 36 0 Normal
09/05/2026 11 AM PDT 3.22 36 0 Normal
09/05/2026 12 PM PDT 3.21 35 - Normal
09/05/2026 01 PM PDT 3.21 35 0 Normal
09/05/2026 02 PM PDT 3.21 35 0 Normal
09/05/2026 03 PM PDT 3.21 35 0 Normal
09/05/2026 04 PM PDT 3.21 35 0 Normal
09/05/2026 05 PM PDT 3.21 35 0 Normal
09/05/2026 06 PM PDT 3.21 35 0 Normal
09/05/2026 07 PM PDT 3.20 34 - Normal
09/05/2026 08 PM PDT 3.20 34 0 Normal
09/05/2026 09 PM PDT 3.20 34 0 Normal
09/05/2026 10 PM PDT 3.20 34 0 Normal
09/05/2026 11 PM PDT 3.21 35 + Normal
09/06/2026 12 AM PDT 3.21 35 0 Normal
09/06/2026 01 AM PDT 3.21 35 0 Normal
09/06/2026 02 AM PDT 3.21 35 0 Normal
09/06/2026 03 AM PDT 3.21 35 0 Normal
09/06/2026 04 AM PDT 3.21 35 0 Normal
09/06/2026 05 AM PDT 3.22 36 + Normal
09/06/2026 06 AM PDT 3.22 36 0 Normal
09/06/2026 07 AM PDT 3.22 36 0 Normal
09/06/2026 08 AM PDT 3.23 37 + Normal
09/06/2026 09 AM PDT 3.24 37 + Normal
09/06/2026 10 AM PDT 3.25 38 + Normal
09/06/2026 11 AM PDT 3.26 39 + Normal
09/06/2026 12 PM PDT 3.27 40 + Normal
09/06/2026 01 PM PDT 3.27 40 0 Normal
09/06/2026 02 PM PDT 3.27 40 0 Normal
09/06/2026 03 PM PDT 3.28 41 + Normal
09/06/2026 04 PM PDT 3.29 42 + Normal
09/06/2026 05 PM PDT 3.29 42 0 Normal
09/06/2026 06 PM PDT 3.30 43 + Normal
09/06/2026 07 PM PDT 3.28 41 - Normal
09/06/2026 08 PM PDT 3.27 40 - Normal
09/06/2026 09 PM PDT 3.26 39 - Normal
09/06/2026 10 PM PDT 3.25 38 - Normal
09/06/2026 11 PM PDT 3.25 38 0 Normal
09/07/2026 12 AM PDT 3.25 38 0 Normal
09/07/2026 01 AM PDT 3.24 37 - Normal
09/07/2026 02 AM PDT 3.24 37 0 Normal
09/07/2026 03 AM PDT 3.24 37 0 Normal
09/07/2026 04 AM PDT 3.24 37 0 Normal
09/07/2026 05 AM PDT 3.23 37 - Normal
09/07/2026 06 AM PDT 3.23 37 0 Normal
09/07/2026 07 AM PDT 3.22 36 - Normal
09/07/2026 08 AM PDT 3.22 36 0 Normal
09/07/2026 09 AM PDT 3.22 36 0 Normal
09/07/2026 10 AM PDT 3.22 36 0 Normal
09/07/2026 11 AM PDT 3.22 36 0 Normal
09/07/2026 12 PM PDT 3.22 36 0 Normal
09/07/2026 01 PM PDT 3.22 36 0 Normal
09/07/2026 02 PM PDT 3.22 36 0 Normal
09/07/2026 03 PM PDT 3.22 36 0 Normal
09/07/2026 04 PM PDT 3.22 36 0 Normal
09/07/2026 05 PM PDT 3.22 36 0 Normal
09/07/2026 06 PM PDT 3.22 36 0 Normal
09/07/2026 07 PM PDT 3.22 36 0 Normal
09/07/2026 08 PM PDT 3.22 36 0 Normal
09/07/2026 09 PM PDT 3.22 36 0 Normal
09/07/2026 10 PM PDT 3.22 36 0 Normal
09/07/2026 11 PM PDT 3.22 36 0 Normal
09/08/2026 12 AM PDT 3.22 36 0 Normal
09/08/2026 01 AM PDT 3.22 36 0 Normal
09/08/2026 02 AM PDT 3.22 36 0 Normal
09/08/2026 03 AM PDT 3.21 35 - Normal
09/08/2026 04 AM PDT 3.21 35 0 Normal
09/08/2026 05 AM PDT 3.21 35 0 Normal
#
# NOTE 1: Stages are rounded to the nearest hundredth (.01) of a foot.
# NOTE 2: Flows are rounded to the nearest (1) cfs.
# NOTE 3: Trends are determined using hourly change in unrounded stage and flow.
# NOTE 4: Maximum Values are determined using unrounded stage and flow.
|